Notices

What's New in latest Release from April 7th, 2021:

- Updated Glossary, including Speed of Maximum Gust, and Total Hourly Precipitation

- Updated national and regional climate services offices contacts and prices information

- Addition of station inventory lists for 1981-2010, 1971-2000, and 1961-1990 Normals.

If you haven't already, please take our survey and provide feedback about our website: https://eccc.sondage-survey.ca/f/LanguageSelection.aspx?s=442ca660-fcf1-47c0-95a9-59707d6fd709

Hourly Data Report for April 30, 2012

MIRAMICHI RCS
NEW BRUNSWICK

47°00'34.000" N
65°27'54.000" W
33.00 m
8100989
71744
ACQ

Download Data

Hourly Data (April 2012)
Hourly Data Report for April 30, 2012
TIME
LST
Temp Definition
°C
Dew Point Definition
°C
Rel Hum Definition
%
Precip. Amount Definition
mm

Wind Dir Definition
10's deg

Wind Spd Definition
km/h
Visibility Definition
km
Stn Press Definition
kPa
Hmdx Definition


Wind Chill Definition


Weather Definition


00:00 -1.2 -8.1 59   26 7   101.31   -4 LegendNANA
01:00 -1.8 -7.8 64   25 7   101.25   -4 LegendNANA
02:00 -2.3 -7.9 65   24 7   101.27   -5 LegendNANA
03:00 -2.9 -8.1 67   23 7   101.29   -6 LegendNANA
04:00 -3.4 -7.8 72   23 7   101.31   -6 LegendNANA
05:00 -3.0 -7.5 71   23 7   101.36   -6 LegendNANA
06:00 -2.3 -6.7 72   23 7   101.45   -5 LegendNANA
07:00 0.7 -5.3 64   31 6   101.53     LegendNANA
08:00 2.3 -4.3 62   31 9   101.58     LegendNANA
09:00 3.7 -4.4 55   32 11   101.64     LegendNANA
10:00 4.5 -4.4 52   31 13   101.67     LegendNANA
11:00 5.3 -4.2 50   32 9   101.68     LegendNANA
12:00 6.2 -3.5 50   30 13   101.67     LegendNANA
13:00 6.5 -3.9 47   31 9   101.69     LegendNANA
14:00 6.9 -3.6 47   33 13   101.74     LegendNANA
15:00 8.1 -3.4 44   33 11   101.79     LegendNANA
16:00 9.4 -3.8 39   32 11   101.76     LegendNANA
17:00 9.5 -3.6 39   33 11   101.78     LegendNANA
18:00 9.3 -3.4 41   36 9   101.83     LegendNANA
19:00 8.5 -3.4 43   3 7   101.83     LegendNANA
20:00 5.2 -3.2 55   6 7   101.84     LegendNANA
21:00 2.2 -2.7 70     0   101.93     LegendNANA
22:00 0.5 -2.6 80   29 2   102.00     LegendNANA
23:00 -0.4 -2.6 85   29 4   102.02   -2 LegendNANA

Notes on Data Quality.

Legend

  • E = Estimated
  • M = Missing
  • NA = Not Available*
  • [empty] = Indicates an unobserved value
Date modified: